Location: Carrières
(48.9495°N, 2.0407°E)
Time: 16:03:16
(UTC+00:00)

Vanguard 2 Rocket - Pass Details

Date: 22 April 2024
Orbit: 556 x 3304 km, 32.9° (Epoch: 18 May)

Event Time Altitude Azimuth Distance (km) Brightness Sun altitude
Rises 17:29:48 0° 170° (S) 5,495 10.7 12.8°
Reaches altitude 10° 17:38:08 10° 138° (SE) 5,257 10.4 11.4°
Maximum altitude 17:41:24 11° 126° (SE) 5,424 10.4 10.9°
Drops below altitude 10° 17:44:55 10° 114° (ESE) 5,731 10.4 10.3°
Sets 17:55:58 0° 86° (E) 7,215 10.8 8.5°
